Regional Weather Roundup
Issued by NWS San Diego, CA

Home | Current Version | Previous Version | Text Only | Print | Product List | Glossary On
Versions: 1 2 3 4 5 6 7 8 9 10 11 12 13 14 15 16 17 18 19 20 21 22 23 24 25 26 27 28 29 30 31 32 33 34 35 36 37 38 39 40 41 42 43 44 45 46 47 48 49 50
000
ASUS46 KSGX 110710
RWRSGX

SAN DIEGO HOURLY WEATHER ROUNDUP
NATIONAL WEATHER SERVICE SAN DIEGO CA
1200 AM PDT FRI JUL 11 2014

NOTE: "FAIR" INDICATES FEW OR NO CLOUDS BELOW 12,000 FEET WITH NO
SIGNIFICANT WEATHER AND/OR OBSTRUCTIONS TO VISIBILITY.

CAZ042-043-060-061-PZZ750-775-110800-

GREATER SAN DIEGO AREA

CITY           SKY/WX    TMP DP  RH WIND       PRES   REMARKS
LINDBERGH FLD  PTCLDY    72  63  73 CALM      29.97S
POINT LOMA       N/A     67  62  84 NW10        N/A
NATIONAL CITY    N/A     69  63  81 CALM      29.97S
CHULA VISTA      N/A     68  64  85 CALM      29.90S
IMPERIAL BEACH CLOUDY    70  63  78 NW7       29.97S
BROWN FIELD    CLEAR     66  60  81 CALM      29.97S
MIRAMAR MCAS   PTCLDY    64  59  83 CALM      29.96S
MONTGOMERY FLD   N/A    N/A N/A N/A MISG      29.97S

$$

NORTH SAN DIEGO COUNTY

CITY           SKY/WX    TMP DP  RH WIND       PRES   REMARKS
CAMP PENDLETON MOCLDY    66  60  81 CALM      29.96S
OCEANSIDE AP   CLOUDY    67  63  87 W5        29.95S
VISTA            N/A     67  63  86 CALM      29.94S
CARLSBAD       MOCLDY    69  62  78 CALM      29.95S
DEL MAR          N/A     67  63  86 CALM      29.97F
LA JOLLA SCRIP   N/A     68  65  90 CALM      29.93S
FALLBROOK        N/A     66  66 100 CALM      29.95S
ESCONDIDO        N/A     67  62  83 NW3       29.97S
SAN MARCOS       N/A     66  61  84 CALM      29.93F
POWAY            N/A     64  60  85 CALM      29.96S
R. PENASQUITOS   N/A     65  62  89 CALM      29.96R

$$

EAST SAN DIEGO COUNTY

CITY           SKY/WX    TMP DP  RH WIND       PRES   REMARKS
RAMONA         CLEAR     61  56  83 W3        29.98S
SANTEE LAKES     N/A     65  61  87 CALM      29.97R
GILLESPIE FLD  FAIR      66  61  82 CALM      29.98S
LA MESA          N/A     67  63  87 W3        29.90S
JAMUL            N/A     64  61  91 CALM      29.94S
DESCANSO N       N/A     60  40  48 E6        29.82R
MT. LAGUNA OBS   N/A     59  34  39 W14       29.75S
CAMPO            N/A     59  48  67 NE6       30.00S

$$

ORANGE COUNTY AND THE LOS ANGELES BASIN

CITY           SKY/WX    TMP DP  RH WIND       PRES   REMARKS
JOHN WAYNE AP  CLEAR     70  61  73 W5        29.95S
LAGUNA BEACH     N/A     66  62  87 CALM      29.91S
LAKE FOREST FR   N/A     64  58  82 CALM      29.85S
SANTA ANA        N/A     69  63  81 CALM      29.91S
HUNTINGTON BCH   N/A     67  63  88 CALM      29.98R
LOS ALAMITOS   FAIR      66  62  86 W3        29.96R
FULLERTON      CLEAR     68  61  78 CALM      29.95R
LONG BEACH     MOCLDY    67  62  84 NW6       29.96R
L.A. AP        CLOUDY    66  61  82 SW8       29.96R
L.A. DOWNTOWN  MOCLDY    67  60  78 CALM      29.95S

$$

THE INLAND EMPIRE

CITY           SKY/WX    TMP DP  RH WIND       PRES   REMARKS
CORONA         CLEAR     66  60  81 CALM      29.97R
CHINO          CLEAR     65  60  84 W6        29.98R
ONTARIO        CLEAR     68  59  73 W5        29.97R
RIVERSIDE AP   CLEAR     69  59  70 W5        29.97R
RIV CYN CREST    N/A     70  66  89 CALM      29.95R
MORENO VALLEY    N/A     68  61  76 CALM      28.09R
MARCH ARB      CLEAR     68  59  72 W3        29.99R
HORSETHIEF CYN   N/A     67  51  56 SW1       29.97R
PERRIS           N/A     68  59  74 S3          N/A
MENIFEE          N/A     68  63  82 S3        30.04R
HEMET EAST       N/A     67  47  48 CALM      29.95R
FRENCH VALLEY  FAIR      64  59  82 CALM      29.99S
TEMECULA         N/A     66  62  87 CALM      29.94R

$$

SAN BERNARDINO AND RIVERSIDE COUNTY MOUNTAINS

CITY           SKY/WX    TMP DP  RH WIND       PRES   REMARKS
BIG BEAR AP    CLEAR     52  36  54 SW3       30.25S
BIG BEAR SHEA    N/A     49  37  61 CALM      29.90R
PINE COVE        N/A     59  40  49 N3        29.89R

$$

SOUTHERN DESERT INCLUDING THE COACHELLA VALLEY

CITY           SKY/WX    TMP DP  RH WIND       PRES   REMARKS
PALM SPRINGS   CLEAR     89  48  24 NW16      29.81R
THOUSAND PALMS   N/A     86  53  31 W15       29.77R
PALM DESERT      N/A     86  54  32 CALM      31.03F
THERMAL        CLEAR     90  49  24 N13       29.75R
BLYTHE         CLEAR     91  43  18 SW14      29.78S
IMPERIAL AP    MOCLDY    85  47  26 W9        29.79R
EL CENTRO NAS  PTCLDY    89  44  20 W14       29.79R
YUMA AZ        CLEAR     91  54  28 W7        29.81S

$$

UPPER DESERT

CITY           SKY/WX    TMP DP  RH WIND       PRES   REMARKS
VICTORVILLE AP CLEAR     73  46  38 S7        30.00R
HESPERIA         N/A     74  44  33 SW3       29.94R
APPLE VALLEY     N/A     72  46  39 CALM      30.06R
GRAY BUTTE AP  FAIR      69  42  37 NE3       29.99R
PALMDALE       CLEAR     76  40  27 SW16      29.98S
LANCASTER      CLEAR     73  42  32 SW14      29.96S
EDWARDS AFB    CLEAR     74  39  28 SW12      29.93S
DAGGETT        CLEAR     84  36  18 SW18      29.90S
29 PALMS N     CLEAR     83  46  27 W8        29.97S
NEEDLES        CLEAR     87  63  44 N15       29.83R

$$

REGIONAL REPORTS

CITY           SKY/WX    TMP DP  RH WIND       PRES   REMARKS
SANTA BARBARA  CLEAR     63  57  81 NE5       29.94S
SANDBERG       CLEAR     67  44  43 SW6       30.11S
MT. WILSON       N/A     61  39  44 MISG        N/A
LAS VEGAS NV   MOCLDY    81  58  45 S6        29.91S
PHOENIX AZ     MOCLDY    95  60  31 SW8       29.82S HX  95
TIJUANA        CLEAR     64  59  82 W7        30.00R

$$

OFFSHORE ISLANDS

CITY           SKY/WX    TMP DP  RH WIND       PRES   REMARKS
CATALINA ARPT  FOG       59  57  93 SW10      29.99S VSB 1/2
SAN CLEMENTE I CLOUDY    64  59  82 W13       29.99S
SAN NICOLAS IS CLOUDY   N/A N/A N/A W13       29.97S

$$

MARINE AND OFFSHORE BUOY REPORTS

STATION/POSITION SKY/WX   TEMP    WIND        PRES    SWELL
                          AIR SEA DIR/SP/G            HT/PER/DIR
                          (F)     (DEG/KT/KT) (MB)    (FT/S/D)
TANNER BANKS               61 63  300/ 12/ 14 1015.6S   3/320/ 9
S CLEMENTE BASIN           64 68  310/ 10/ 12 1014.7F   3/300/ 9
SO. S. ROSA ISLA           64 67  300/ 16/ 17 1014.4F   3/ 9
W. S. BARBARA CH           62 65  320/ 17/ 19 1014.0F   3/320/11
M. S. BARBARA CH           64 68  270/ 14/ 16 1014.1
S. MONICA BASIN            65 70  280/ 12/ 14 1014.0S   2/190/14
S PEDRO CHANNEL               71                N/A     2/160/13
DANA POINT                    74                N/A     2/180/14
CMP PENDLETON NS              74                N/A     2/210/13
OCEANSIDE OFFSHR              72                N/A     2/210/14
TORREY PINES OTR              73                N/A     2/200/13
LA JOLLA 1                 70 76  330/  5/  6 1014.4F
MISSION BAY BUOY              74                N/A     2/200/13
SAN DIEGO BAY                 76              1014.7F
POINT LOMA SOUTH              72                N/A     2/210/12

$$




USA.gov is the U.S. government's official web portal to all federal, state and local government web resources and services.